Home   Weather   Alexandria   Past weeks
Flag for Egypt

Past Weather in Alexandria, Egypt — Yesterday and Last 2 Weeks

Now
99 °F

Sunny.


Feels Like: 95 °F
Forecast: 79 / 71 °F
Wind: 9 mph from North

Location: Alexandria / Nouzha

Current Time: May 23, 2019 at 5:29:28 pm

Latest Report: May 23, 2019 at 4:00 pm


Visibility: 10 mi

Pressure: 29.74 "Hg

Humidity: 19%

Dew Point: 50 °F

Location of AlexandriaLocation

Past Weather in Alexandria — Graph

°F

Alexandria Temperature Yesterday

Maximum temperature yesterday: 104 °F (at 1:00 pm)
Minimum temperature yesterday: 70 °F (at 3:00 am)
Average temperature yesterday: 84 °F

High & Low Weather Summary for the Past Weeks

 TemperatureHumidityPressure
High111 °F (May 23, 1:00 pm)94% (May 20, 5:00 am)30.01 "Hg (May 20, 5:00 am)
Low55 °F (May 10, 5:00 am)7% (May 23, 2:00 pm)29.68 "Hg (May 16, 4:00 pm)
Average74 °F58%29.89 "Hg
* Reported May 8 3:00 pm — May 23 3:00 pm, Alexandria. Weather by CustomWeather, © 2019

Note: Actual official high and low records may vary slightly from our data, if they occured in-between our weather recording intervals... More about our weather records

Advertising

Alexandria Weather History for the Previous 24 Hours

Scroll right to see more
 ConditionsComfort  
Time TempWeatherWind HumidityBarometerVisibility
3:00 pm
Thu, May 23
106 °FSunny.9 mph10%29.74 "Hg10 mi
2:00 pm111 °FSunny.6 mph7%29.74 "Hg10 mi
1:00 pm111 °FSunny.7 mph10%29.77 "Hg10 mi
12:00 pm108 °FSunny.7 mph16%29.77 "Hg10 mi
11:00 am102 °FSunny.10 mph20%29.80 "Hg10 mi
9:00 am90 °FSunny.7 mph31%29.80 "Hg10 mi
8:00 am84 °FSunny.3 mph37%29.80 "Hg10 mi
7:00 am82 °FSunny.2 mph35%29.80 "Hg10 mi
6:00 am73 °FSunny.3 mph50%29.80 "Hg10 mi
5:00 am72 °FSunny.No wind53%29.80 "Hg10 mi
4:00 am73 °FClear.No wind50%29.83 "Hg10 mi
3:00 am75 °FClear.2 mph47%29.83 "Hg10 mi
2:00 am75 °FClear.3 mph47%29.83 "Hg10 mi
1:00 am75 °FClear.2 mph47%29.86 "Hg10 mi
12:00 am79 °FClear.5 mph45%29.89 "Hg10 mi
11:00 pm
Wed, May 22
81 °FClear.6 mph42%29.89 "Hg10 mi
10:00 pm84 °FClear.9 mph58%29.89 "Hg10 mi
9:00 pm84 °FClear.7 mph55%29.89 "Hg10 mi
8:00 pm84 °FClear.8 mph58%29.86 "Hg10 mi
7:00 pm82 °FClear.6 mph58%29.86 "Hg10 mi
6:00 pm88 °FSunny.9 mph49%29.86 "Hg10 mi
Weather by CustomWeather, © 2019

See weather overview